OBJECT B, 67249

Orbit data source: Space-Track

You're viewing an Uncataloged Satellite

Recently launched and/or uncataloged satellites may have evolving metadata. Metadata may include but not limited to: Owner, Maufacturer, Bus, Motor, and Mission.

OBJECT B, 67249 is a satellite in SSO that was launched on Sun, 28 Dec 2025 UTC via a SOYUZ-2-1B launch vehicle from the Vostochny Cosmodrome (VOSTO). Unknown objects in Earth's orbit typically refer to objects detected orbiting the Earth but have not yet been identified or cataloged. These objects could be anything from previously untracked satellites, spent rocket stages, debris from satellite collisions, or even natural meteoroids temporarily captured by Earth's gravity.

Loading next visibility...
Identifier
67249, 2025-313B
Orbit
SSO
Country
Flag of TBDTBD
Related business
Manufacturer
NPO PM
Mission
Operational spacecraft
Bus & Motor
MARAFON, Unknown motor
Mass
67 kg wet, 67 kg dry
Launch date (UTC)
2025-12-28 (6 months ago)
Launch vehicle
SOYUZ-2-1B
Launch site
Vostochny Cosmodrome (VOSTO)
Object type
Unknown
Shape & HBR
Unknown shape, 0.7 m
Radar Cross Section
Medium (>0.1 m² and <1 m²)

Expand to show TLE details & history
Last TLE update: 10 hours ago

TLE from 10 hours ago
0 OBJECT B
1 67249U 25313B   26171.42567789  .00001346  00000-0  10726-3 0  9990
2 67249  97.5115 236.5973 0291633 325.0053  33.2291 14.74280655 25611
Epoch: 2026-06-20T10:12Z
TLE epoch observation values (Epoch: 2026-06-20T10:12:58.569Z)
Latitude
0.00005°
Longitude
174.71278°
Altitude
480.905 km
Speed
7.716 km/s
True Right ascension
15h 46m 23s
True Declination
0° 00' 00"
Sunlit
Object was in full shadow at epoch
Visualization orbit readout
Latitude
Unknown
Longitude
Unknown
Altitude
Unknown
Speed
Unknown
Apparent Right ascension
Unknown
Apparent Declination
Unknown
Sunlit
N/A
Visualization observer readout
Local Sidereal Time
07:12:14
Azimuth
Unknown
Elevation
Unknown
Doppler factor
Unknown
Orbital elements
Apogee altitude
849.266 km
Perigee altitude
439.661 km
Semi-major axis
7,022.6 km
Eccentricity
0.02916
Inclination
97.5115°
RAAN
236.5973°
Arg. of periapsis
325.0053°
True anomaly
35.11758°
Mean anomaly
33.2291°
Eccentric anomaly
34.16752°
Mean motion
3.68805 °/min
Orbital period
97.61 mins
BSTAR
0.00010726
Loading maneuver chart data...
Computing Atmospheric mass density...
Loading historical data...
Loading historical data...
Loading historical data...
Loading historical data...
Loading historical data...
Loading historical data...
Loading historical data...

Documentation

Showing up to 5 results
|